Location: Les Chemineaux
(47.3024°N, 1.5104°E)
Time: 18:55:39
(UTC+00:00)

Meteor 2-15 Rocket - Pass Details

Date: 19 May 2025
Orbit: 938 x 956 km, 82.5° (Epoch: 22 June)

Event Time Altitude Azimuth Distance (km) Brightness Sun altitude
Rises 22:53:14 0° 351° (N) 3,635 9.0 -21.5°
Reaches altitude 10° 22:55:46 10° 354° (N) 2,683 7.9 -21.6°
Maximum altitude 23:01:54 72° 79° (E) 993 4.5 -21.8°
Enters shadow 23:04:01 42° 152° (SSE) 1,315 4.7 -21.9°
